FW3961 Weather Reports


Display with metric or nautical units.
time (UTC)temp
F
wind
direction
speed
MPH
gust
MPH
rain 1hr
in
rain 24hr
in
rain mn
in
humidity
%
barometer
mb
20260903075715 54 135 4.0 8.0 0.00 0.39 0.00 93 1011.6
20260903075209 54 136 4.0 8.0 0.00 0.39 0.00 93 1011.5
20260903074702 54 130 4.0 9.0 0.00 0.39 0.00 93 1011.5
20260903074156 54 134 4.0 9.0 0.00 0.39 0.00 94 1011.6
20260903073650 54 134 3.0 7.0 0.00 0.39 0.00 94 1011.4
20260903073646 54 132 3.0 7.0 0.00 0.39 0.00 94 1011.5
20260903072639 54 128 4.0 8.0 0.00 0.39 0.00 94 1011.5
20260903072634 54 134 4.0 8.0 0.00 0.39 0.00 94 1011.5
20260903071627 54 135 4.0 8.0 0.00 0.39 0.00 94 1011.4
20260903071121 54 139 3.0 7.0 0.00 0.39 0.00 94 1011.4
20260903070615 54 134 4.0 7.0 0.00 0.39 0.00 94 1011.4
20260903070110 54 137 4.0 7.0 0.00 0.39 0.00 94 1011.3
20260903065604 54 134 4.0 9.0 0.00 0.39 0.39 94 1011.2
20260903065058 54 132 4.0 9.0 0.00 0.39 0.39 94 1011.3
20260903064552 54 134 3.0 8.0 0.00 0.39 0.39 94 1011.3
20260903064046 54 134 3.0 8.0 0.00 0.39 0.39 94 1011.4
20260903063540 54 132 3.0 5.0 0.00 0.39 0.39 94 1011.5
20260903063040 54 136 3.0 5.0 0.00 0.39 0.39 94 1011.4
20260903062537 55 138 3.0 4.0 0.00 0.39 0.39 94 1011.5
20260903062042 55 133 3.0 5.0 0.00 0.39 0.39 94 1011.5
20260903062038 55 134 3.0 4.0 0.00 0.39 0.39 94 1011.6
20260903061038 55 132 2.0 5.0 0.00 0.39 0.39 94 1011.5
20260903060537 55 131 3.0 5.0 0.00 0.39 0.39 94 1011.5
20260903060042 55 130 3.0 5.0 0.00 0.39 0.39 94 1011.4
20260903055538 55 132 3.0 5.0 0.00 0.39 0.39 94 1011.4
20260903055036 55 132 3.0 5.0 0.00 0.39 0.39 94 1011.4
20260903054536 55 132 3.0 6.0 0.00 0.39 0.39 94 1011.4
20260903054041 55 135 3.0 6.0 0.00 0.39 0.39 94 1011.5
20260903054037 55 130 3.0 6.0 0.00 0.39 0.39 94 1011.5
20260903053032 55 143 3.0 7.0 0.00 0.39 0.39 94 1011.5
20260903052530 55 130 3.0 8.0 0.00 0.39 0.39 94 1011.5
20260903052029 55 134 3.0 8.0 0.00 0.39 0.39 94 1011.4
20260903051528 55 128 3.0 8.0 0.00 0.39 0.39 94 1011.4
20260903051032 55 130 2.0 5.0 0.00 0.39 0.39 94 1011.4
20260903051028 55 135 3.0 8.0 0.00 0.39 0.39 94 1011.4
20260903050022 55 132 2.0 5.0 0.00 0.39 0.39 94 1011.4
20260903045517 55 131 3.0 8.0 0.00 0.39 0.39 94 1011.3
20260903045016 55 138 3.0 8.0 0.00 0.39 0.39 94 1011.2
20260903044513 55 136 3.0 7.0 0.00 0.39 0.39 94 1011.1
20260903044353 55 132 4.0 8.0 0.00 0.39 0.39 94 1011.1
20260903044244 55 134 4.0 7.0 0.00 0.39 0.39 94 1011.2
20260903043014 55 130 4.0 9.0 0.00 0.39 0.39 94 1011.1
20260903042514 55 132 3.0 9.0 0.00 0.39 0.39 93 1011.1
20260903042014 55 138 2.0 5.0 0.00 0.39 0.39 93 1011.0
20260903041516 55 135 3.0 5.0 0.00 0.39 0.39 93 1010.9
20260903041014 55 130 3.0 7.0 0.00 0.39 0.39 93 1010.9
20260903040514 56 132 3.0 7.0 0.00 0.39 0.39 93 1010.9
20260903040010 56 131 3.0 7.0 0.00 0.39 0.39 93 1010.9
20260903035509 56 137 3.0 4.0 0.00 0.39 0.39 93 1010.9
20260903035009 56 134 3.0 4.0 0.00 0.39 0.39 93 1010.8
20260903034510 56 134 3.0 5.0 0.00 0.39 0.39 93 1010.8
20260903034351 56 134 2.0 6.0 0.00 0.39 0.39 92 1010.8
20260903034240 56 135 3.0 5.0 0.00 0.39 0.39 92 1010.8
20260903033009 56 124 2.0 6.0 0.00 0.39 0.39 92 1010.8
20260903032514 56 121 2.0 7.0 0.00 0.39 0.39 92 1010.7
20260903032510 56 121 2.0 4.0 0.00 0.39 0.39 92 1010.8
20260903031505 56 117 2.0 7.0 0.00 0.39 0.39 91 1010.8
20260903031010 57 126 2.0 4.0 0.00 0.39 0.39 91 1010.6
20260903031005 57 132 2.0 7.0 0.00 0.39 0.39 91 1010.6
20260903030003 57 132 2.0 4.0 0.00 0.39 0.39 91 1010.5
20260903025507 57 132 2.0 4.0 0.00 0.39 0.39 91 1010.5
20260903024959 57 132 2.0 4.0 0.00 0.39 0.39 91 1010.4
20260903024458 57 134 1.0 4.0 0.00 0.39 0.39 90 1010.3
20260903024000 57 134 2.0 3.0 0.00 0.39 0.39 90 1010.3
20260903023956 57 134 2.0 3.0 0.00 0.39 0.39 91 1010.2
20260903022956 57 134 1.0 3.0 0.00 0.39 0.39 90 1010.2
20260903022455 57 134 0.0 3.0 0.00 0.39 0.39 90 1010.3
20260903021956 57 134 0.0 1.0 0.00 0.39 0.39 90 1010.4
20260903021456 57 134 1.0 5.0 0.00 0.39 0.39 90 1010.2
20260903020956 57 134 2.0 5.0 0.00 0.39 0.39 90 1010.3
20260903020453 58 157 1.0 4.0 0.00 0.39 0.39 90 1010.3
20260903015957 58 207 0.0 3.0 0.00 0.39 0.39 91 1010.2
20260903015451 58 225 0.0 2.0 0.00 0.39 0.39 90 1010.1
20260903014948 57 225 0.0 2.0 0.00 0.39 0.39 90 1009.9
20260903014944 57 225 0.0 2.0 0.00 0.39 0.39 90 1010.0
20260903013936 58 220 1.0 4.0 0.00 0.39 0.39 90 1010.0
20260903013932 58 217 1.0 4.0 0.00 0.39 0.39 90 1010.0
20260903012920 58 221 0.0 3.0 0.00 0.39 0.39 90 1010.1
20260903012416 58 228 1.0 3.0 0.00 0.39 0.39 90 1009.9
20260903011908 58 248 1.0 5.0 0.01 0.39 0.39 91 1009.8
20260903011403 58 219 2.0 5.0 0.01 0.39 0.39 91 1009.8
20260903010856 58 198 2.0 5.0 0.01 0.39 0.39 91 1009.8
20260903010356 59 219 1.0 4.0 0.02 0.39 0.39 93 1009.5
20260903010352 59 192 1.0 5.0 0.02 0.39 0.39 92 1009.7
20260903005340 59 211 1.0 4.0 0.02 0.39 0.39 94 1009.5
20260903004834 59 214 1.0 3.0 0.02 0.39 0.39 93 1009.5
20260903004328 58 225 1.0 3.0 0.03 0.39 0.39 93 1009.4
20260903003821 58 238 1.0 3.0 0.04 0.39 0.39 93 1009.4
20260903003314 58 258 1.0 3.0 0.04 0.39 0.39 94 1009.3
20260903002809 58 146 1.0 3.0 0.05 0.39 0.39 94 1009.3
20260903002306 58 161 1.0 4.0 0.07 0.39 0.39 94 1009.2
20260903001801 57 215 0.0 2.0 0.10 0.38 0.38 94 1009.3
20260903001757 58 161 1.0 4.0 0.10 0.38 0.38 94 1009.3
20260903000745 57 218 0.0 1.0 0.10 0.38 0.38 94 1009.1
20260903000242 57 217 0.0 2.0 0.09 0.37 0.37 93 1009.2
20260903000240 57 218 0.0 1.0 0.09 0.37 0.37 93 1009.2
20260902235226 57 217 0.0 2.0 0.09 0.37 0.37 93 1009.2
20260902234721 57 217 1.0 5.0 0.09 0.37 0.37 93 1009.2
20260902234216 57 207 2.0 5.0 0.08 0.36 0.36 93 1009.2
20260902233710 58 275 2.0 6.0 0.08 0.35 0.35 93 1009.2
20260902233204 58 259 3.0 8.0 0.08 0.35 0.35 93 1009.1
20260902232657 58 228 4.0 9.0 0.07 0.33 0.33 93 1009.0
20260902232151 59 277 3.0 11.0 0.02 0.28 0.30 93 1008.8
20260902231645 59 119 3.0 9.0 0.03 0.28 0.28 93 1008.6
20260902231142 59 123 3.0 10.0 0.03 0.28 0.28 93 1008.5
20260902231134 59 145 3.0 10.0 0.04 0.28 0.28 93 1008.4
20260902230128 58 194 3.0 10.0 0.04 0.28 0.28 93 1008.5
20260902225626 58 123 3.0 7.0 0.04 0.28 0.28 93 1008.3
20260902225622 58 136 3.0 10.0 0.04 0.28 0.28 93 1008.3
20260902224613 58 133 3.0 10.0 0.04 0.28 0.28 92 1008.2
20260902224609 58 129 3.0 7.0 0.04 0.28 0.28 92 1008.4
20260902223601 59 146 3.0 10.0 0.03 0.27 0.27 92 1008.3
20260902223101 59 123 3.0 10.0 0.03 0.27 0.27 92 1008.2
20260902222601 59 146 3.0 8.0 0.02 0.26 0.26 91 1008.2
20260902222440 59 215 3.0 7.0 0.01 0.25 0.25 90 1008.3
20260902222331 59 178 3.0 8.0 0.02 0.26 0.26 91 1008.3
20260902221059 59 102 4.0 11.0 0.01 0.25 0.25 89 1008.3
20260902220559 59 0 4.0 15.0 0.00 0.24 0.24 89 1008.3
20260902220056 59 271 3.0 15.0 0.00 0.24 0.24 89 1008.3
20260902215557 59 149 3.0 11.0 0.00 0.24 0.24 89 1008.3
20260902215057 59 140 4.0 10.0 0.00 0.24 0.24 89 1008.3
20260902214557 59 329 3.0 10.0 0.00 0.24 0.24 89 1008.3
20260902214054 59 153 3.0 9.0 0.00 0.24 0.24 90 1008.3
20260902213555 59 134 4.0 15.0 0.00 0.24 0.24 90 1008.2
20260902213055 59 134 4.0 15.0 0.00 0.24 0.24 89 1008.2
20260902212555 59 119 4.0 11.0 0.00 0.24 0.24 89 1008.3
20260902212054 59 350 4.0 10.0 0.00 0.24 0.24 89 1008.2
20260902211553 59 144 4.0 11.0 0.00 0.24 0.24 89 1008.3
20260902211053 59 126 4.0 11.0 0.00 0.24 0.24 88 1008.2
20260902210553 60 121 3.0 11.0 0.00 0.24 0.24 88 1008.2
20260902210057 60 201 3.0 10.0 0.00 0.24 0.24 88 1008.1
20260902210053 60 162 4.0 10.0 0.00 0.24 0.24 88 1008.2
20260902205053 60 161 3.0 10.0 0.00 0.24 0.24 89 1008.0
20260902204552 59 138 3.0 8.0 0.00 0.24 0.24 90 1008.0
20260902204054 59 132 3.0 8.0 0.00 0.24 0.24 89 1008.0
20260902203553 59 144 3.0 7.0 0.00 0.24 0.24 90 1007.8
20260902203053 59 121 3.0 8.0 0.00 0.24 0.24 90 1007.8
20260902202557 59 137 4.0 11.0 0.00 0.24 0.24 90 1007.7
20260902202058 59 139 4.0 12.0 0.00 0.24 0.24 90 1007.7
20260902201557 59 131 5.0 12.0 0.01 0.24 0.24 90 1007.5
20260902201056 58 132 5.0 11.0 0.01 0.24 0.24 91 1007.5
20260902200552 58 136 6.0 10.0 0.01 0.24 0.24 91 1007.5
20260902200052 58 139 5.0 10.0 0.02 0.24 0.24 91 1007.6
20260902195554 58 131 5.0 10.0 0.03 0.24 0.24 92 1007.4
20260902195057 58 142 5.0 9.0 0.04 0.24 0.24 92 1007.4
20260902195053 58 125 5.0 10.0 0.03 0.24 0.24 92 1007.4
20260902194051 58 137 5.0 10.0 0.05 0.24 0.24 92 1007.4
20260902193550 58 132 5.0 10.0 0.05 0.24 0.24 92 1007.4
20260902193051 58 130 5.0 10.0 0.06 0.24 0.24 93 1007.3
20260902192550 58 136 5.0 11.0 0.07 0.24 0.24 93 1007.4
20260902192051 57 137 6.0 11.0 0.08 0.24 0.24 92 1007.3
20260902191554 57 136 6.0 11.0 0.13 0.23 0.23 93 1007.3
20260902191550 57 147 6.0 11.0 0.10 0.23 0.23 93 1007.3
20260902190551 57 127 6.0 11.0 0.14 0.23 0.23 93 1007.3
20260902190050 57 152 5.0 11.0 0.13 0.22 0.22 93 1007.4
20260902185549 57 153 5.0 11.0 0.12 0.21 0.21 93 1007.4
20260902185050 57 142 5.0 10.0 0.12 0.21 0.21 93 1007.5
20260902184548 57 130 4.0 10.0 0.11 0.20 0.20 93 1007.6
20260902184048 57 139 3.0 10.0 0.11 0.19 0.19 93 1007.7
20260902183549 57 134 3.0 8.0 0.11 0.19 0.19 92 1007.9
20260902183041 57 131 3.0 8.0 0.10 0.18 0.18 92 1007.9
20260902182535 57 137 3.0 7.0 0.10 0.17 0.17 92 1008.0
20260902182029 58 132 3.0 7.0 0.08 0.15 0.15 92 1007.9
20260902181525 58 138 4.0 8.0 0.07 0.13 0.13 92 1007.8
20260902181520 58 132 3.0 8.0 0.05 0.10 0.10 91 1008.0
20260902180512 58 130 3.0 7.0 0.05 0.09 0.09 91 1008.0
20260902180007 58 129 4.0 8.0 0.06 0.09 0.09 91 1008.0
20260902175459 58 131 3.0 8.0 0.07 0.09 0.09 91 1007.9
20260902175455 58 130 3.0 7.0 0.08 0.09 0.09 91 1007.9
20260902174448 58 132 3.0 7.0 0.08 0.08 0.08 91 1008.1
20260902173941 57 136 3.0 7.0 0.08 0.08 0.08 91 1008.1
20260902173437 57 126 3.0 7.0 0.08 0.08 0.08 90 1008.1
20260902172930 57 134 2.0 5.0 0.08 0.08 0.08 90 1008.1
20260902172424 57 155 1.0 4.0 0.07 0.07 0.07 89 1008.2
20260902171918 58 240 1.0 5.0 0.06 0.06 0.06 89 1008.2
20260902171413 58 186 2.0 5.0 0.05 0.05 0.06 88 1008.3
20260902170906 58 143 2.0 6.0 0.04 0.04 0.04 88 1008.3
20260902170400 58 192 2.0 6.0 0.04 0.04 0.04 87 1008.3
20260902165854 58 150 2.0 5.0 0.03 0.03 0.03 87 1008.3
20260902165350 59 76 2.0 9.0 0.02 0.02 0.02 86 1008.3
20260902164850 59 209 3.0 11.0 0.01 0.01 0.01 84 1008.2
20260902164349 60 181 2.0 11.0 0.00 0.00 0.00 83 1008.2
20260902163850 60 282 2.0 7.0 0.00 0.00 0.00 81 1008.2
20260902163350 61 146 2.0 7.0 0.00 0.00 0.00 80 1008.0
20260902162858 62 142 1.0 3.0 0.00 0.00 0.00 78 1007.8
20260902162850 61 265 1.0 4.0 0.00 0.00 0.00 79 1007.9
20260902161852 61 132 2.0 4.0 0.00 0.00 0.00 77 1007.6
20260902161848 62 132 1.0 4.0 0.00 0.00 0.00 77 1007.7
20260902160846 61 132 3.0 5.0 0.00 0.00 0.00 77 1007.7
20260902160343 61 131 3.0 5.0 0.00 0.00 0.00 77 1007.7
20260902155842 61 127 3.0 5.0 0.00 0.00 0.00 78 1007.8
20260902155342 61 134 3.0 7.0 0.00 0.00 0.00 78 1007.8
20260902154843 61 131 2.0 7.0 0.00 0.00 0.00 79 1007.9
20260902154338 61 123 3.0 6.0 0.00 0.00 0.00 79 1008.0
20260902153837 61 132 3.0 6.0 0.00 0.01 0.00 79 1008.0
20260902153338 60 133 3.0 7.0 0.00 0.01 0.00 80 1008.1
20260902152838 60 125 3.0 7.0 0.00 0.01 0.00 80 1008.1
20260902152708 60 130 3.0 6.0 0.00 0.01 0.00 81 1008.1
20260902152604 60 135 3.0 5.0 0.00 0.01 0.00 81 1008.1
20260902151326 60 132 3.0 4.0 0.00 0.01 0.00 82 1008.2
20260902150820 60 126 3.0 4.0 0.00 0.01 0.00 83 1008.2
20260902150314 59 125 2.0 4.0 0.00 0.01 0.00 83 1008.3
20260902145809 59 126 2.0 4.0 0.00 0.01 0.00 84 1008.4
20260902145301 59 130 2.0 4.0 0.00 0.01 0.00 84 1008.4
20260902144755 59 128 2.0 4.0 0.00 0.01 0.00 85 1008.3
20260902144250 59 128 2.0 4.0 0.00 0.01 0.00 85 1008.5
20260902143743 58 128 2.0 3.0 0.00 0.01 0.00 85 1008.5
20260902143238 58 128 2.0 4.0 0.00 0.01 0.00 85 1008.5
20260902142732 58 128 2.0 4.0 0.00 0.01 0.00 85 1008.6
20260902142225 58 128 2.0 4.0 0.00 0.01 0.00 86 1008.5
20260902141720 58 125 2.0 4.0 0.00 0.01 0.00 86 1008.6
20260902141216 58 125 1.0 3.0 0.00 0.01 0.00 86 1008.5
20260902140708 58 125 1.0 3.0 0.00 0.01 0.00 87 1008.6
20260902140204 58 125 2.0 3.0 0.00 0.01 0.00 87 1008.6
20260902135707 58 125 2.0 3.0 0.00 0.01 0.00 86 1008.7
20260902135703 58 125 2.0 3.0 0.00 0.01 0.00 87 1008.7
20260902134703 58 125 2.0 3.0 0.00 0.01 0.00 86 1008.8
20260902134204 58 125 2.0 3.0 0.00 0.01 0.00 86 1008.9
20260902133701 58 125 2.0 3.0 0.00 0.01 0.00 86 1008.9
20260902133201 58 125 2.0 3.0 0.00 0.01 0.00 86 1009.0
20260902132659 58 125 2.0 3.0 0.00 0.01 0.00 86 1009.0
20260902132159 58 125 2.0 4.0 0.00 0.01 0.00 86 1009.1
20260902131700 58 125 2.0 4.0 0.00 0.01 0.00 85 1009.1
20260902131159 58 126 2.0 3.0 0.00 0.01 0.00 85 1009.2
20260902130700 58 126 2.0 3.0 0.00 0.01 0.00 85 1009.3
20260902130159 58 126 2.0 3.0 0.00 0.01 0.00 85 1009.4
20260902125704 58 126 2.0 3.0 0.00 0.01 0.00 85 1009.3
20260902125204 58 125 2.0 3.0 0.00 0.01 0.00 84 1009.5
20260902124703 58 125 2.0 3.0 0.00 0.01 0.00 84 1009.5
20260902124204 58 125 1.0 3.0 0.00 0.01 0.00 84 1009.6
20260902123700 58 125 1.0 3.0 0.00 0.01 0.00 84 1009.9
20260902123200 59 123 2.0 3.0 0.00 0.01 0.00 83 1009.8
20260902122700 59 123 2.0 4.0 0.00 0.01 0.00 83 1009.9
20260902122200 59 123 1.0 4.0 0.00 0.01 0.00 83 1009.9
20260902121659 59 123 1.0 3.0 0.00 0.01 0.00 83 1010.0
20260902121159 59 118 1.0 3.0 0.00 0.01 0.00 83 1010.0
20260902120700 59 138 1.0 3.0 0.00 0.01 0.00 83 1010.2
20260902120157 59 138 2.0 3.0 0.00 0.01 0.00 83 1010.1
20260902115657 59 138 2.0 3.0 0.00 0.01 0.00 82 1010.3
20260902115158 59 138 2.0 3.0 0.00 0.01 0.00 82 1010.3
20260902114656 59 138 2.0 4.0 0.00 0.01 0.00 82 1010.5
20260902114155 59 138 3.0 4.0 0.00 0.01 0.00 82 1010.6
20260902113656 59 131 2.0 4.0 0.00 0.01 0.00 82 1010.6
20260902113155 59 135 2.0 5.0 0.00 0.01 0.00 82 1010.6
20260902112655 59 134 3.0 6.0 0.00 0.01 0.00 82 1010.7
20260902112154 59 132 3.0 6.0 0.00 0.01 0.00 82 1010.8
20260902111653 59 127 2.0 4.0 0.00 0.01 0.00 82 1010.9
20260902111154 60 128 2.0 4.0 0.00 0.01 0.00 81 1010.9
20260902110653 60 121 2.0 4.0 0.00 0.01 0.00 81 1010.9
20260902110147 60 133 2.0 4.0 0.00 0.01 0.00 81 1011.0
20260902105640 60 132 2.0 6.0 0.00 0.01 0.00 81 1011.1
20260902105636 60 127 3.0 6.0 0.00 0.01 0.00 81 1011.2
20260902104632 60 132 3.0 8.0 0.00 0.01 0.00 82 1011.2
20260902104628 59 123 3.0 8.0 0.00 0.01 0.00 82 1011.3
20260902103617 59 127 4.0 7.0 0.00 0.01 0.00 82 1011.3
20260902103111 59 132 4.0 7.0 0.00 0.01 0.00 83 1011.4
20260902103107 59 134 3.0 7.0 0.00 0.01 0.00 83 1011.4
20260902102059 58 136 3.0 7.0 0.00 0.01 0.00 84 1011.4
20260902101552 58 138 3.0 7.0 0.00 0.01 0.00 84 1011.5
20260902101046 58 133 2.0 5.0 0.00 0.01 0.00 85 1011.5
20260902100541 57 136 2.0 4.0 0.00 0.01 0.00 86 1011.4
20260902100536 57 136 2.0 3.0 0.00 0.01 0.00 86 1011.5
20260902095529 57 136 2.0 3.0 0.00 0.01 0.00 86 1011.6
20260902095023 57 136 2.0 4.0 0.00 0.01 0.00 86 1011.6
20260902094518 57 128 2.0 4.0 0.00 0.01 0.00 86 1011.6
20260902094514 57 128 2.0 3.0 0.00 0.01 0.00 86 1011.5
20260902093505 57 126 2.0 3.0 0.00 0.01 0.00 86 1011.8
20260902092959 57 125 2.0 3.0 0.00 0.01 0.00 86 1011.8
20260902092453 58 125 2.0 3.0 0.00 0.01 0.00 86 1011.8
20260902091947 57 124 2.0 3.0 0.00 0.01 0.00 86 1011.9
20260902091441 57 123 2.0 3.0 0.00 0.01 0.00 86 1012.0
20260902091436 57 123 1.0 3.0 0.00 0.01 0.00 86 1011.9
20260902090429 57 123 1.0 3.0 0.00 0.01 0.00 86 1012.0
20260902085923 57 123 1.0 3.0 0.00 0.01 0.00 86 1012.1
20260902085416 57 123 2.0 3.0 0.00 0.01 0.00 86 1012.1
20260902084910 57 123 2.0 3.0 0.00 0.01 0.00 86 1012.2
20260902084906 57 123 2.0 3.0 0.00 0.01 0.00 86 1012.3
20260902083859 57 123 2.0 3.0 0.00 0.01 0.00 85 1012.2
20260902083352 57 123 2.0 3.0 0.00 0.01 0.00 85 1012.3
20260902082847 58 123 2.0 4.0 0.00 0.01 0.00 84 1012.3
20260902082340 58 123 2.0 4.0 0.00 0.01 0.00 83 1012.4
20260902081835 58 127 2.0 4.0 0.00 0.01 0.00 82 1012.4
20260902081328 58 127 1.0 4.0 0.00 0.01 0.00 82 1012.6
20260902080824 59 123 1.0 2.0 0.00 0.01 0.00 82 1012.5
20260902080648 59 123 1.0 2.0 0.00 0.01 0.00 82 1012.5
20260902080543 59 123 1.0 2.0 0.00 0.01 0.00 82 1012.5